This is the latest recevied weather packets stored in our database for station/object KD8DNS. If no packets are shown the sender has not sent any weather packets the latest 10 day(s).
| Time | Temp. | Humidity | Pressure | Rain* | Wind** | Luminosity | Snow |
|---|---|---|---|---|---|---|---|
| 1787942045 | 30° C | 54% | 1023 hPa | 0 mm | - | 757 W/m² | - |
| 1787941741 | 30° C | 54% | 1022.7 hPa | 0 mm | - | 737 W/m² | - |
| 1787941439 | 29.44° C | 53% | 1023 hPa | 0 mm | - | 712 W/m² | - |
| 1787941138 | 29.44° C | 55% | 1022.7 hPa | 0 mm | - | 704 W/m² | - |
| 1787940834 | 28.89° C | 57% | 1023 hPa | 0 mm | - | 699 W/m² | - |
| 1787940531 | 27.78° C | 63% | 1023.1 hPa | 0 mm | - | 675 W/m² | - |
| 1787940225 | 27.22° C | 63% | 1023 hPa | 0 mm | - | 223 W/m² | - |
| 1787939920 | 26.67° C | 61% | 1023.1 hPa | 0 mm | - | 174 W/m² | - |
| 1787939619 | 27.22° C | 59% | 1022.9 hPa | 0 mm | - | 206 W/m² | - |
| 1787939315 | 27.22° C | 62% | 1023 hPa | 0 mm | - | 367 W/m² | - |
| 1787939009 | 27.78° C | 60% | 1023.1 hPa | 0 mm | - | 194 W/m² | - |
| 1787938707 | 27.78° C | 59% | 1023.1 hPa | 0 mm | - | 189 W/m² | - |
| 1787938405 | 27.78° C | 60% | 1023.1 hPa | 0 mm | - | 174 W/m² | - |
| 1787938100 | 28.33° C | 56% | 1023.2 hPa | 0 mm | - | 174 W/m² | - |
| 1787937795 | 28.33° C | 58% | 1023.2 hPa | 0 mm | - | 185 W/m² | - |
| 1787937491 | 29.44° C | 56% | 1023.1 hPa | 0 mm | - | 337 W/m² | - |
| 1787937187 | 29.44° C | 57% | 1023.1 hPa | 0 mm | - | 701 W/m² | - |
| 1787936881 | 29.44° C | 54% | 1023.1 hPa | 0 mm | - | 686 W/m² | - |
| 1787936581 | 28.89° C | 56% | 1023.4 hPa | 0 mm | - | 700 W/m² | - |
| 1787936280 | 30° C | 54% | 1023.3 hPa | 0 mm | - | 146 W/m² | - |
| 1787935975 | 29.44° C | 57% | 1023.1 hPa | 0 mm | - | 755 W/m² | - |
| 1787935670 | 28.89° C | 62% | 1023.1 hPa | 0 mm | - | 720 W/m² | - |
| 1787935367 | 28.33° C | 58% | 1023.2 hPa | 0 mm | - | 742 W/m² | - |
| 1787935063 | 28.33° C | 58% | 1023.1 hPa | 0 mm | - | 737 W/m² | - |
| 1787934758 | 27.78° C | 58% | 1022.9 hPa | 0 mm | - | 687 W/m² | - |
* Rain latest hour (hover to see other rain measurements)
** Current wind speed in m/s (hover to see current wind gust speed)